{"data":{"norad_id":43002,"intl_designator":"2017-069B","name":"BEIDOU-3 M2 (C20)","alt_names":[],"object_type":"PAYLOAD","status":"ACTIVE","operator":null,"country":"PRC","launch_date":"2017-11-05","launch_site_code":"XICLF","launch_vehicle":null,"mission":null,"orbit_class":"UNKNOWN","rcs_meters":null,"size_class":null,"mass_kg":null,"dimensions":null,"purposes":["nav"],"wikipedia_slug":null,"has_3d_model":false,"image_url":null,"decayed_at":null,"tle_current":{"epoch":"2026-05-24T23:34:55.859808Z","epoch_age_seconds":83452,"freshness":"FRESH","line1":"1 43002U 17069B   26144.98259097 -.00000074  00000+0  00000+0 0  9998","line2":"2 43002  56.6725  63.8844 0009764 345.7840  14.1813  1.86230543 58162","mean_motion":1.86230543,"eccentricity":0.0009764,"inclination_deg":56.6725,"raan_deg":63.8844,"arg_perigee_deg":345.784,"mean_anomaly_deg":14.1813,"bstar":0,"rev_number":5816,"period_min":773.23514005971,"perigee_km":21500.849570326,"apogee_km":21555.344864506,"semimajor_km":27906.234217416,"source":"CELESTRAK","updated_at":"2026-05-25T13:38:24.216880Z"}}}